RYR9YP EPKK-LHBP

Flight info

Callsign RYR9YP
Flight time 0h 37m
Altitude 24000
Route BABKO M866 NIDOK M985 NIT M748 ARFOX
Aircraft B738/M-SDE2E3FGHIRWXY/LB1

Departure

Time 2026-05-04 18:56
Airport Kraków John Paul II International Airport (EPKK)

Arrival

Time 2026-05-04 19:34
Airport Budapest Liszt Ferenc International Airport (LHBP)
Time Latitude Longitude Altitude Speed Heading
2026-05-04 18:30 50.07344 19.80115 788 ft 0 kts 168°
2026-05-04 18:41 50.07349 19.80113 788 ft 4 kts 168°
2026-05-04 18:41 50.07375 19.80103 788 ft 4 kts 160°
2026-05-04 18:41 50.07398 19.80084 788 ft 4 kts 131°
2026-05-04 18:42 50.07406 19.80059 788 ft 1 kts 77°
2026-05-04 18:44 50.07406 19.80061 788 ft 1 kts 77°
2026-05-04 18:44 50.07430 19.80229 788 ft 14 kts 77°
2026-05-04 18:44 50.07455 19.80355 788 ft 9 kts 49°
2026-05-04 18:45 50.07509 19.80396 788 ft 9 kts 19°
2026-05-04 18:45 50.07567 19.80420 788 ft 8 kts
2026-05-04 18:45 50.07624 19.80408 788 ft 8 kts 346°
2026-05-04 18:45 50.07679 19.80388 788 ft 8 kts 350°
2026-05-04 18:46 50.07733 19.80373 788 ft 8 kts 349°
2026-05-04 18:46 50.07784 19.80357 788 ft 7 kts 347°
2026-05-04 18:46 50.07814 19.80346 788 ft 0 kts 347°
2026-05-04 18:46 50.07817 19.80345 788 ft 1 kts 347°
2026-05-04 18:47 50.07829 19.80341 788 ft 2 kts 347°
2026-05-04 18:47 50.07836 19.80338 788 ft 0 kts 347°
2026-05-04 18:53 50.07875 19.80324 788 ft 10 kts 347°
2026-05-04 18:53 50.07946 19.80299 788 ft 11 kts 347°
2026-05-04 18:54 50.08008 19.80247 787 ft 10 kts 297°
2026-05-04 18:54 50.08009 19.80182 788 ft 0 kts 262°
2026-05-04 18:56 50.07988 19.80020 788 ft 48 kts 257°
2026-05-04 18:56 50.07865 19.79151 789 ft 117 kts 258°
2026-05-04 18:56 50.07650 19.77638 921 ft 160 kts 257°
2026-05-04 18:56 50.07409 19.75837 1419 ft 178 kts 258°
2026-05-04 18:57 50.07151 19.73967 2273 ft 179 kts 255°
2026-05-04 18:57 50.06852 19.71953 2662 ft 204 kts 255°
2026-05-04 18:57 50.06513 19.69680 2934 ft 226 kts 255°
2026-05-04 18:57 50.06021 19.67348 3571 ft 228 kts 237°
2026-05-04 18:58 50.04875 19.65559 4027 ft 244 kts 213°
2026-05-04 18:58 50.03307 19.64500 4721 ft 255 kts 200°
2026-05-04 18:58 50.01589 19.63741 5552 ft 261 kts 197°
2026-05-04 18:58 49.99829 19.63030 6107 ft 263 kts 197°
2026-05-04 18:59 49.98021 19.62305 6812 ft 272 kts 197°
2026-05-04 18:59 49.96188 19.61562 7702 ft 272 kts 197°
2026-05-04 18:59 49.94357 19.60812 8615 ft 273 kts 197°
2026-05-04 18:59 49.92518 19.60050 9487 ft 275 kts 197°
2026-05-04 19:00 49.90657 19.59274 10292 ft 279 kts 197°
2026-05-04 19:00 49.89391 19.58742 10525 ft 293 kts 197°
2026-05-04 19:00 49.87338 19.57877 10707 ft 318 kts 197°
2026-05-04 19:00 49.84387 19.56632 11136 ft 342 kts 197°
2026-05-04 19:01 49.82073 19.55658 11812 ft 346 kts 197°
2026-05-04 19:01 49.79741 19.54679 12615 ft 348 kts 197°
2026-05-04 19:01 49.77400 19.53695 13427 ft 350 kts 197°
2026-05-04 19:01 49.75036 19.52702 14117 ft 354 kts 197°
2026-05-04 19:02 49.73453 19.52036 14563 ft 357 kts 197°
2026-05-04 19:02 49.71048 19.51026 15226 ft 360 kts 197°
2026-05-04 19:02 49.68615 19.50005 15855 ft 364 kts 197°
2026-05-04 19:02 49.66155 19.48974 16482 ft 369 kts 197°
2026-05-04 19:03 49.63663 19.47930 17116 ft 373 kts 197°
2026-05-04 19:03 49.61166 19.46795 17763 ft 376 kts 200°
2026-05-04 19:03 49.58691 19.45457 18375 ft 379 kts 202°
2026-05-04 19:03 49.56204 19.44027 18902 ft 383 kts 202°
2026-05-04 19:04 49.53692 19.42563 19390 ft 388 kts 202°
2026-05-04 19:04 49.51191 19.41113 19946 ft 391 kts 202°
2026-05-04 19:04 49.48636 19.39645 20492 ft 394 kts 202°
2026-05-04 19:04 49.46055 19.38176 20984 ft 398 kts 202°
2026-05-04 19:05 49.43439 19.36697 21442 ft 403 kts 201°
2026-05-04 19:05 49.40788 19.35208 21874 ft 408 kts 202°
2026-05-04 19:05 49.38118 19.33713 22427 ft 410 kts 202°
2026-05-04 19:05 49.35425 19.32210 22940 ft 413 kts 202°
2026-05-04 19:06 49.32717 19.30699 23419 ft 416 kts 202°
2026-05-04 19:06 49.29991 19.29181 23917 ft 417 kts 202°
2026-05-04 19:06 49.27272 19.27669 24007 ft 412 kts 202°
2026-05-04 19:06 49.24621 19.26198 24032 ft 410 kts 201°
2026-05-04 19:07 49.21922 19.24700 24049 ft 415 kts 201°
2026-05-04 19:07 49.19193 19.23186 24053 ft 418 kts 201°
2026-05-04 19:07 49.16468 19.21677 24044 ft 416 kts 201°
2026-05-04 19:07 49.14137 19.20388 24041 ft 415 kts 201°
2026-05-04 19:08 49.11426 19.18889 24047 ft 415 kts 201°
2026-05-04 19:08 49.08677 19.17371 24057 ft 426 kts 201°
2026-05-04 19:08 49.05858 19.15815 24062 ft 436 kts 201°
2026-05-04 19:08 49.03012 19.14247 24052 ft 445 kts 201°
2026-05-04 19:09 49.00078 19.12632 24049 ft 452 kts 201°
2026-05-04 19:09 48.97116 19.11006 24045 ft 451 kts 201°
2026-05-04 19:09 48.94168 19.09390 24047 ft 450 kts 201°
2026-05-04 19:09 48.91227 19.07780 24045 ft 449 kts 201°
2026-05-04 19:10 48.88291 19.06174 24053 ft 449 kts 201°
2026-05-04 19:10 48.86346 19.05111 24049 ft 448 kts 201°
2026-05-04 19:10 48.82420 19.02969 24040 ft 448 kts 201°
2026-05-04 19:10 48.79494 19.01373 24043 ft 447 kts 201°
2026-05-04 19:11 48.76605 18.99800 24051 ft 447 kts 201°
2026-05-04 19:11 48.73677 18.98206 24058 ft 447 kts 201°
2026-05-04 19:11 48.70746 18.96614 24050 ft 448 kts 201°
2026-05-04 19:11 48.67810 18.95021 24054 ft 448 kts 201°
2026-05-04 19:12 48.64877 18.93433 24053 ft 448 kts 201°
2026-05-04 19:12 48.59003 18.90256 24051 ft 449 kts 201°
2026-05-04 19:12 48.56065 18.88670 24050 ft 449 kts 201°
2026-05-04 19:13 48.53125 18.87084 24055 ft 449 kts 201°
2026-05-04 19:13 48.50223 18.85522 24052 ft 449 kts 201°
2026-05-04 19:13 48.47275 18.83937 24048 ft 449 kts 201°
2026-05-04 19:13 48.44332 18.82356 24048 ft 449 kts 201°
2026-05-04 19:14 48.41390 18.80777 24040 ft 449 kts 201°
2026-05-04 19:14 48.38442 18.79197 24037 ft 449 kts 201°
2026-05-04 19:14 48.35509 18.77627 24024 ft 442 kts 201°
2026-05-04 19:14 48.32645 18.76098 23599 ft 434 kts 201°
2026-05-04 19:15 48.29805 18.74582 23010 ft 433 kts 201°
2026-05-04 19:15 48.27015 18.73094 22348 ft 429 kts 201°
2026-05-04 19:15 48.24218 18.71604 21695 ft 425 kts 200°
2026-05-04 19:15 48.21445 18.70128 21051 ft 421 kts 200°
2026-05-04 19:16 48.18698 18.68667 20426 ft 417 kts 200°
2026-05-04 19:16 48.15980 18.67223 19808 ft 414 kts 200°
2026-05-04 19:16 48.13273 18.65787 19196 ft 410 kts 200°
2026-05-04 19:16 48.10593 18.64367 18606 ft 407 kts 200°
2026-05-04 19:17 48.07938 18.62962 17970 ft 403 kts 200°
2026-05-04 19:17 48.05301 18.61591 17328 ft 400 kts 197°
2026-05-04 19:17 48.02597 18.61066 16646 ft 399 kts 177°
2026-05-04 19:17 47.99904 18.61974 16034 ft 398 kts 159°
2026-05-04 19:18 47.97520 18.64047 15415 ft 398 kts 142°
2026-05-04 19:18 47.95619 18.67017 14814 ft 397 kts 127°
2026-05-04 19:18 47.94353 18.70663 14219 ft 397 kts 111°
2026-05-04 19:18 47.93482 18.74555 13617 ft 394 kts 109°
2026-05-04 19:19 47.92660 18.78433 12973 ft 392 kts 109°
2026-05-04 19:19 47.91837 18.82291 12334 ft 389 kts 109°
2026-05-04 19:19 47.91003 18.86113 11702 ft 387 kts 110°
2026-05-04 19:19 47.90165 18.89876 11389 ft 376 kts 110°
2026-05-04 19:20 47.89348 18.93515 11132 ft 365 kts 110°
2026-05-04 19:20 47.88544 18.97046 10871 ft 352 kts 112°
2026-05-04 19:20 47.87380 19.00108 10582 ft 331 kts 133°
2026-05-04 19:20 47.85875 19.02514 10377 ft 314 kts 135°
2026-05-04 19:21 47.84403 19.04827 10110 ft 301 kts 135°
2026-05-04 19:21 47.82992 19.07054 9850 ft 290 kts 135°
2026-05-04 19:21 47.81637 19.09204 9577 ft 280 kts 135°
2026-05-04 19:21 47.80332 19.11284 9314 ft 271 kts 135°
2026-05-04 19:22 47.79066 19.13307 9047 ft 264 kts 135°
2026-05-04 19:22 47.77814 19.15306 8799 ft 264 kts 135°
2026-05-04 19:22 47.76564 19.17301 8555 ft 264 kts 135°
2026-05-04 19:22 47.75326 19.19312 8310 ft 264 kts 134°
2026-05-04 19:23 47.74122 19.21324 8075 ft 264 kts 133°
2026-05-04 19:23 47.72908 19.23362 7831 ft 264 kts 133°
2026-05-04 19:23 47.71695 19.25395 7587 ft 263 kts 134°
2026-05-04 19:23 47.70483 19.27418 7337 ft 261 kts 133°
2026-05-04 19:24 47.69277 19.29429 7094 ft 260 kts 134°
2026-05-04 19:24 47.67889 19.31073 6822 ft 255 kts 161°
2026-05-04 19:24 47.66173 19.31228 6592 ft 248 kts 196°
2026-05-04 19:24 47.64652 19.30094 6367 ft 245 kts 219°
2026-05-04 19:25 47.63586 19.28149 6106 ft 245 kts 244°
2026-05-04 19:25 47.63177 19.25711 5857 ft 246 kts 267°
2026-05-04 19:25 47.63457 19.23211 5611 ft 247 kts 285°
2026-05-04 19:25 47.64023 19.20842 5373 ft 247 kts 288°
2026-05-04 19:26 47.64637 19.18460 5135 ft 247 kts 288°
2026-05-04 19:26 47.65243 19.16084 4884 ft 246 kts 287°
2026-05-04 19:26 47.65839 19.13706 4641 ft 246 kts 287°
2026-05-04 19:26 47.66428 19.11324 4385 ft 245 kts 286°
2026-05-04 19:27 47.67011 19.08952 4137 ft 244 kts 286°
2026-05-04 19:27 47.67584 19.06614 4020 ft 237 kts 284°
2026-05-04 19:27 47.67748 19.04270 3985 ft 225 kts 252°
2026-05-04 19:27 47.67052 19.02274 4008 ft 218 kts 226°
2026-05-04 19:28 47.65887 19.00904 4003 ft 218 kts 208°
2026-05-04 19:28 47.64532 18.99879 4015 ft 220 kts 206°
2026-05-04 19:28 47.63154 18.98890 4001 ft 220 kts 206°
2026-05-04 19:28 47.61765 18.97933 3992 ft 220 kts 198°
2026-05-04 19:29 47.60261 18.97846 3984 ft 221 kts 163°
2026-05-04 19:29 47.59012 18.99164 4014 ft 226 kts 135°
2026-05-04 19:29 47.57969 19.00902 3993 ft 225 kts 136°
2026-05-04 19:29 47.56917 19.02581 3875 ft 219 kts 136°
2026-05-04 19:30 47.55898 19.04220 3605 ft 212 kts 136°
2026-05-04 19:30 47.54942 19.05767 3334 ft 200 kts 137°
2026-05-04 19:30 47.54028 19.07248 3081 ft 189 kts 137°
2026-05-04 19:30 47.53162 19.08648 2846 ft 181 kts 137°
2026-05-04 19:31 47.52329 19.09996 2655 ft 169 kts 137°
2026-05-04 19:31 47.51571 19.11224 2398 ft 154 kts 138°
2026-05-04 19:31 47.50861 19.12370 2213 ft 155 kts 138°
2026-05-04 19:31 47.50128 19.13554 1995 ft 155 kts 137°
2026-05-04 19:32 47.49416 19.14709 1789 ft 150 kts 138°
2026-05-04 19:32 47.48711 19.15849 1543 ft 152 kts 137°
2026-05-04 19:32 47.48011 19.16983 1389 ft 151 kts 136°
2026-05-04 19:32 47.47304 19.18129 1193 ft 150 kts 134°
2026-05-04 19:33 47.46605 19.19263 983 ft 148 kts 133°
2026-05-04 19:33 47.45907 19.20394 803 ft 150 kts 133°
2026-05-04 19:33 47.45205 19.21534 590 ft 148 kts 133°
2026-05-04 19:33 47.44523 19.22633 450 ft 140 kts 132°
2026-05-04 19:34 47.43944 19.23573 454 ft 105 kts 132°
2026-05-04 19:34 47.43487 19.24310 450 ft 91 kts 132°
2026-05-04 19:34 47.43219 19.24749 453 ft 49 kts 131°
2026-05-04 19:34 47.43104 19.24960 456 ft 18 kts 109°
2026-05-04 19:35 47.43143 19.25113 456 ft 13 kts 44°
2026-05-04 19:35 47.43150 19.25123 456 ft 0 kts 44°
2026-05-04 19:35 47.43151 19.25123 456 ft 0 kts 44°
2026-05-04 19:36 47.43167 19.25147 456 ft 6 kts 44°
2026-05-04 19:36 47.43203 19.25200 456 ft 9 kts 44°
2026-05-04 19:36 47.43276 19.25297 456 ft 18 kts 42°
2026-05-04 19:36 47.43383 19.25442 456 ft 23 kts 40°
2026-05-04 19:37 47.43506 19.25601 456 ft 20 kts 42°
2026-05-04 19:37 47.43616 19.25750 456 ft 22 kts 43°
2026-05-04 19:37 47.43711 19.25879 455 ft 15 kts 43°
2026-05-04 19:37 47.43723 19.25990 456 ft 12 kts 127°
2026-05-04 19:38 47.43654 19.26037 456 ft 9 kts 198°
2026-05-04 19:38 47.43630 19.25987 456 ft 5 kts 287°
2026-05-04 19:38 47.43646 19.25966 456 ft 1 kts 319°
2026-05-04 19:38 47.43652 19.25957 456 ft 1 kts 313°
2026-05-04 19:39 47.43654 19.25953 456 ft 0 kts 313°